Year,Month,Day,Hour,Minute,Value (Times are PST for windgust in km/hr)
2022,05,18,00,30,1.60
2022,05,18,00,34,3.20
2022,05,18,00,35,3.20
2022,05,18,01,14,1.60
2022,05,18,01,15,4.80
2022,05,18,01,16,1.60
2022,05,18,01,20,1.60
2022,05,18,01,45,1.60
2022,05,18,01,52,1.60
2022,05,18,01,53,1.60
2022,05,18,01,54,3.20
2022,05,18,01,55,3.20
2022,05,18,01,56,6.40
2022,05,18,01,57,3.20
2022,05,18,02,07,4.80
2022,05,18,02,14,1.60
2022,05,18,02,15,1.60
2022,05,18,02,20,1.60
2022,05,18,02,24,3.20
2022,05,18,02,25,3.20
2022,05,18,02,26,3.20
2022,05,18,02,27,3.20
2022,05,18,02,28,1.60
2022,05,18,03,12,3.20
2022,05,18,03,13,3.20
2022,05,18,03,14,1.60
2022,05,18,03,19,4.80
2022,05,18,03,20,1.60
2022,05,18,03,21,1.60
2022,05,18,03,23,4.80
2022,05,18,03,24,4.80
2022,05,18,03,25,6.40
2022,05,18,03,26,4.80
2022,05,18,03,27,8.10
2022,05,18,03,28,9.60
2022,05,18,03,29,4.80
2022,05,18,03,30,8.10
2022,05,18,03,31,6.40
2022,05,18,03,32,3.20
2022,05,18,03,33,6.40
2022,05,18,03,34,4.80
2022,05,18,03,35,4.80
2022,05,18,03,36,4.80
2022,05,18,03,37,4.80
2022,05,18,03,38,3.20
2022,05,18,03,39,1.60
2022,05,18,03,40,3.20
2022,05,18,03,41,3.20
2022,05,18,03,42,3.20
2022,05,18,03,44,4.80
2022,05,18,03,45,4.80
2022,05,18,03,46,3.20
2022,05,18,03,50,3.20
2022,05,18,03,51,3.20
2022,05,18,03,52,3.20
2022,05,18,03,53,1.60
2022,05,18,03,55,1.60
2022,05,18,03,56,3.20
2022,05,18,03,57,3.20
2022,05,18,03,59,1.60
2022,05,18,04,00,1.60
2022,05,18,04,01,4.80
2022,05,18,04,02,3.20
2022,05,18,04,03,1.60
2022,05,18,04,04,3.20
2022,05,18,04,05,3.20
2022,05,18,04,06,3.20
2022,05,18,04,07,3.20
2022,05,18,04,08,3.20
2022,05,18,04,09,1.60
2022,05,18,04,10,1.60
2022,05,18,04,13,1.60
2022,05,18,04,14,3.20
2022,05,18,04,18,1.60
2022,05,18,04,19,3.20
2022,05,18,04,20,3.20
2022,05,18,04,21,3.20
2022,05,18,04,22,3.20
2022,05,18,04,25,4.80
2022,05,18,04,26,4.80
2022,05,18,04,27,4.80
2022,05,18,04,28,4.80
2022,05,18,04,32,4.80
2022,05,18,04,33,4.80
2022,05,18,04,34,3.20
2022,05,18,05,08,1.60
2022,05,18,05,09,3.20
2022,05,18,05,10,3.20
2022,05,18,05,12,3.20
2022,05,18,05,13,4.80
2022,05,18,05,14,4.80
2022,05,18,05,15,4.80
2022,05,18,05,16,3.20
2022,05,18,05,22,1.60
2022,05,18,05,25,1.60
2022,05,18,05,26,4.80
2022,05,18,05,27,4.80
2022,05,18,05,28,6.40
2022,05,18,05,29,8.10
2022,05,18,05,30,4.80
2022,05,18,05,31,3.20
2022,05,18,05,35,3.20
2022,05,18,05,36,1.60
2022,05,18,05,37,4.80
2022,05,18,05,38,6.40
2022,05,18,05,39,6.40
2022,05,18,05,40,8.10
2022,05,18,05,41,6.40
2022,05,18,05,42,6.40
2022,05,18,05,43,6.40
2022,05,18,05,44,8.10
2022,05,18,05,45,4.80
2022,05,18,05,46,4.80
2022,05,18,05,47,6.40
2022,05,18,05,48,6.40
2022,05,18,05,49,4.80
2022,05,18,05,50,6.40
2022,05,18,05,51,3.20
2022,05,18,05,52,3.20
2022,05,18,05,53,6.40
2022,05,18,05,54,3.20
2022,05,18,05,58,4.80
2022,05,18,05,59,3.20
2022,05,18,06,00,4.80
2022,05,18,06,01,4.80
2022,05,18,06,02,4.80
2022,05,18,06,03,6.40
2022,05,18,06,05,6.40
2022,05,18,06,06,4.80
2022,05,18,06,07,1.60
2022,05,18,06,08,4.80
2022,05,18,06,09,4.80
2022,05,18,06,10,4.80
2022,05,18,06,11,4.80
2022,05,18,06,12,8.10
2022,05,18,06,13,4.80
2022,05,18,06,14,3.20
2022,05,18,06,15,8.10
2022,05,18,06,16,6.40
2022,05,18,06,17,4.80
2022,05,18,06,18,4.80
2022,05,18,06,19,9.60
2022,05,18,06,20,3.20
2022,05,18,06,23,4.80
2022,05,18,06,24,4.80
2022,05,18,06,25,3.20
2022,05,18,06,26,4.80
2022,05,18,06,27,1.60
2022,05,18,06,28,3.20
2022,05,18,06,29,6.40
2022,05,18,06,30,6.40
2022,05,18,06,31,6.40
2022,05,18,06,32,6.40
2022,05,18,06,33,4.80
2022,05,18,06,34,4.80
2022,05,18,06,35,1.60
2022,05,18,06,36,4.80
2022,05,18,06,37,11.30
2022,05,18,06,38,11.30
2022,05,18,06,39,4.80
2022,05,18,06,43,9.60
2022,05,18,06,44,6.40
2022,05,18,06,46,4.80
2022,05,18,06,47,4.80
2022,05,18,06,48,4.80
2022,05,18,06,49,4.80
2022,05,18,06,50,9.60
2022,05,18,06,51,9.60
2022,05,18,06,52,11.30
2022,05,18,06,53,11.30
2022,05,18,06,54,6.40
2022,05,18,06,55,3.20
2022,05,18,06,56,4.80
2022,05,18,06,57,9.60
2022,05,18,06,58,14.50
2022,05,18,06,59,9.60
2022,05,18,07,00,6.40
2022,05,18,07,01,9.60
2022,05,18,07,02,12.90
2022,05,18,07,03,8.10
2022,05,18,07,04,8.10
2022,05,18,07,05,6.40
2022,05,18,07,06,6.40
2022,05,18,07,07,6.40
2022,05,18,07,08,4.80
2022,05,18,07,09,8.10
2022,05,18,07,10,4.80
2022,05,18,07,12,9.60
2022,05,18,07,13,9.60
2022,05,18,07,15,8.10
2022,05,18,07,16,6.40
2022,05,18,07,17,1.60
2022,05,18,07,18,1.60
2022,05,18,07,20,9.60
2022,05,18,07,21,8.10
2022,05,18,07,22,3.20
2022,05,18,07,23,6.40
2022,05,18,07,24,12.90
2022,05,18,07,25,8.10
2022,05,18,07,26,6.40
2022,05,18,07,27,11.30
2022,05,18,07,28,14.50
2022,05,18,07,29,11.30
2022,05,18,07,30,11.30
2022,05,18,07,31,11.30
2022,05,18,07,32,8.10
2022,05,18,07,34,6.40
2022,05,18,07,35,6.40
2022,05,18,07,36,6.40
2022,05,18,07,37,12.90
2022,05,18,07,38,11.30
2022,05,18,07,39,4.80
2022,05,18,07,40,4.80
2022,05,18,07,41,9.60
2022,05,18,07,42,8.10
2022,05,18,07,43,6.40
2022,05,18,07,44,1.60
2022,05,18,07,45,6.40
2022,05,18,07,46,3.20
2022,05,18,07,47,11.30
2022,05,18,07,48,6.40
2022,05,18,07,49,4.80
2022,05,18,07,50,6.40
2022,05,18,07,51,17.70
2022,05,18,07,52,12.90
2022,05,18,07,53,12.90
2022,05,18,07,54,8.10
2022,05,18,07,55,8.10
2022,05,18,07,56,17.70
2022,05,18,07,57,9.60
2022,05,18,07,58,11.30
2022,05,18,07,59,9.60
2022,05,18,08,00,16.10
2022,05,18,08,01,29.00
2022,05,18,08,02,24.20
2022,05,18,08,03,22.50
2022,05,18,08,04,14.50
2022,05,18,08,05,20.90
2022,05,18,08,06,20.90
2022,05,18,08,07,16.10
2022,05,18,08,08,16.10
2022,05,18,08,09,17.70
2022,05,18,08,10,20.90
2022,05,18,08,11,20.90
2022,05,18,08,12,33.80
2022,05,18,08,13,20.90
2022,05,18,08,14,16.10
2022,05,18,08,15,22.50
2022,05,18,08,16,24.20
2022,05,18,08,17,11.30
2022,05,18,08,18,22.50
2022,05,18,08,19,29.00
2022,05,18,08,20,35.40
2022,05,18,08,21,30.60
2022,05,18,08,22,37.00
2022,05,18,08,23,16.10
2022,05,18,08,24,24.20
2022,05,18,08,25,14.50
2022,05,18,08,26,17.70
2022,05,18,08,27,12.90
2022,05,18,08,28,19.30
2022,05,18,08,29,22.50
2022,05,18,08,30,19.30
2022,05,18,08,31,33.80
2022,05,18,08,32,32.20
2022,05,18,08,33,24.20
2022,05,18,08,34,25.70
2022,05,18,08,35,37.00
2022,05,18,08,36,35.40
2022,05,18,08,37,32.20
2022,05,18,08,38,29.00
2022,05,18,08,39,22.50
2022,05,18,08,40,29.00
2022,05,18,08,41,16.10
2022,05,18,08,42,27.40
2022,05,18,08,43,35.40
2022,05,18,08,44,24.20
2022,05,18,08,45,19.30
2022,05,18,08,46,33.80
2022,05,18,08,47,25.70
2022,05,18,08,48,19.30
2022,05,18,08,49,19.30
2022,05,18,08,50,37.00
2022,05,18,08,51,43.50
2022,05,18,08,52,37.00
2022,05,18,08,53,29.00
2022,05,18,08,54,19.30
2022,05,18,08,55,22.50
2022,05,18,08,56,27.40
2022,05,18,08,57,27.40
2022,05,18,08,58,53.10
2022,05,18,08,59,37.00
2022,05,18,09,00,38.60
2022,05,18,09,01,20.90
2022,05,18,09,02,32.20
2022,05,18,09,03,41.80
2022,05,18,09,04,45.10
2022,05,18,09,05,51.50
2022,05,18,09,06,41.80
2022,05,18,09,07,35.40
2022,05,18,09,08,46.70
2022,05,18,09,09,38.60
2022,05,18,09,10,37.00
2022,05,18,09,11,43.50
2022,05,18,09,12,43.50
2022,05,18,09,13,24.20
2022,05,18,09,14,33.80
2022,05,18,09,15,38.60
2022,05,18,09,16,29.00
2022,05,18,09,17,49.90
2022,05,18,09,18,30.60
2022,05,18,09,19,22.50
2022,05,18,09,20,22.50
2022,05,18,09,21,38.60
2022,05,18,09,22,37.00
2022,05,18,09,23,30.60
2022,05,18,09,24,43.50
2022,05,18,09,25,27.40
2022,05,18,09,26,43.50
2022,05,18,09,27,54.70
2022,05,18,09,28,54.70
2022,05,18,09,29,29.00
2022,05,18,09,30,43.50
2022,05,18,09,31,43.50
2022,05,18,09,32,37.00
2022,05,18,09,33,53.10
2022,05,18,09,34,29.00
2022,05,18,09,35,30.60
2022,05,18,09,36,29.00
2022,05,18,09,37,45.10
2022,05,18,09,38,67.60
2022,05,18,09,39,25.70
2022,05,18,09,40,49.90
2022,05,18,09,41,51.50
2022,05,18,09,42,38.60
2022,05,18,09,43,40.20
2022,05,18,09,44,51.50
2022,05,18,09,45,45.10
2022,05,18,09,46,56.30
2022,05,18,09,47,37.00
2022,05,18,09,48,37.00
2022,05,18,09,49,43.50
2022,05,18,09,50,30.60
2022,05,18,09,51,35.40
2022,05,18,09,52,51.50
2022,05,18,09,53,49.90
2022,05,18,09,54,46.70
2022,05,18,09,55,53.10
2022,05,18,09,56,57.90
2022,05,18,09,57,32.20
2022,05,18,09,58,46.70
2022,05,18,09,59,40.20
2022,05,18,10,00,43.50
2022,05,18,10,01,46.70
2022,05,18,10,02,49.90
2022,05,18,10,03,49.90
2022,05,18,10,04,49.90
2022,05,18,10,05,40.20
2022,05,18,10,06,37.00
2022,05,18,10,07,35.40
2022,05,18,10,08,32.20
2022,05,18,10,09,54.70
2022,05,18,10,10,49.90
2022,05,18,10,11,41.80
2022,05,18,10,12,35.40
2022,05,18,10,13,30.60
2022,05,18,10,14,38.60
2022,05,18,10,15,24.20
2022,05,18,10,16,20.90
2022,05,18,10,17,38.60
2022,05,18,10,18,33.80
2022,05,18,10,19,38.60
2022,05,18,10,20,38.60
2022,05,18,10,21,48.30
2022,05,18,10,22,43.50
2022,05,18,10,23,38.60
2022,05,18,10,24,64.40
2022,05,18,10,25,56.30
2022,05,18,10,26,56.30
2022,05,18,10,27,61.20
2022,05,18,10,28,59.50
2022,05,18,10,29,46.70
2022,05,18,10,30,51.50
2022,05,18,10,31,57.90
2022,05,18,10,32,62.70
2022,05,18,10,33,35.40
2022,05,18,10,34,48.30
2022,05,18,10,35,40.20
2022,05,18,10,36,56.30
2022,05,18,10,37,53.10
2022,05,18,10,38,57.90
2022,05,18,10,39,51.50
2022,05,18,10,40,59.50
2022,05,18,10,41,67.60
2022,05,18,10,42,57.90
2022,05,18,10,43,46.70
2022,05,18,10,44,43.50
2022,05,18,10,45,46.70
2022,05,18,10,46,48.30
2022,05,18,10,47,53.10
2022,05,18,10,48,49.90
2022,05,18,10,49,53.10
2022,05,18,10,50,53.10
2022,05,18,10,51,49.90
2022,05,18,10,52,51.50
2022,05,18,10,53,59.50
2022,05,18,10,54,51.50
2022,05,18,10,55,38.60
2022,05,18,10,56,30.60
2022,05,18,10,57,45.10
2022,05,18,10,58,27.40
2022,05,18,10,59,56.30
2022,05,18,11,00,46.70
2022,05,18,11,01,62.70
2022,05,18,11,02,51.50
2022,05,18,11,03,41.80
2022,05,18,11,04,54.70
2022,05,18,11,05,45.10
2022,05,18,11,06,46.70
2022,05,18,11,07,19.30
2022,05,18,11,08,53.10
2022,05,18,11,09,53.10
2022,05,18,11,10,35.40
2022,05,18,11,11,25.70
2022,05,18,11,12,33.80
2022,05,18,11,13,33.80
2022,05,18,11,14,35.40
2022,05,18,11,15,49.90
2022,05,18,11,16,51.50
2022,05,18,11,17,51.50
2022,05,18,11,18,53.10
2022,05,18,11,19,61.20
2022,05,18,11,20,54.70
2022,05,18,11,21,51.50
2022,05,18,11,22,33.80
2022,05,18,11,23,49.90
2022,05,18,11,24,57.90
2022,05,18,11,25,40.20
2022,05,18,11,26,49.90
2022,05,18,11,27,37.00
2022,05,18,11,28,29.00
2022,05,18,11,29,45.10
2022,05,18,11,30,54.70
2022,05,18,11,31,43.50
2022,05,18,11,32,59.50
2022,05,18,11,33,62.70
2022,05,18,11,34,53.10
2022,05,18,11,35,49.90
2022,05,18,11,36,32.20
2022,05,18,11,37,37.00
2022,05,18,11,38,49.90
2022,05,18,11,39,48.30
2022,05,18,11,40,51.50
2022,05,18,11,41,40.20
2022,05,18,11,42,33.80
2022,05,18,11,43,35.40
2022,05,18,11,44,33.80
2022,05,18,11,45,46.70
2022,05,18,11,46,43.50
2022,05,18,11,47,38.60
2022,05,18,11,48,48.30
2022,05,18,11,49,40.20
2022,05,18,11,50,57.90
2022,05,18,11,51,54.70
2022,05,18,11,52,41.80
2022,05,18,11,53,45.10
2022,05,18,11,54,51.50
2022,05,18,11,55,48.30
2022,05,18,11,56,54.70
2022,05,18,11,57,45.10
2022,05,18,11,58,51.50
2022,05,18,11,59,41.80
2022,05,18,12,00,51.50
2022,05,18,12,01,38.60
2022,05,18,12,02,35.40
2022,05,18,12,03,45.10
2022,05,18,12,04,53.10
2022,05,18,12,05,54.70
2022,05,18,12,06,40.20
2022,05,18,12,07,33.80
2022,05,18,12,08,32.20
2022,05,18,12,09,40.20
2022,05,18,12,10,40.20
2022,05,18,12,11,41.80
2022,05,18,12,12,46.70
2022,05,18,12,13,40.20
2022,05,18,12,14,62.70
2022,05,18,12,15,41.80
2022,05,18,12,16,30.60
2022,05,18,12,17,46.70
2022,05,18,12,18,46.70
2022,05,18,12,19,51.50
2022,05,18,12,20,46.70
2022,05,18,12,21,33.80
2022,05,18,12,22,41.80
2022,05,18,12,23,29.00
2022,05,18,12,24,40.20
2022,05,18,12,25,38.60
2022,05,18,12,26,53.10
2022,05,18,12,27,54.70
2022,05,18,12,28,43.50
2022,05,18,12,29,40.20
2022,05,18,12,30,56.30
2022,05,18,12,31,37.00
2022,05,18,12,32,33.80
2022,05,18,12,33,40.20
2022,05,18,12,34,27.40
2022,05,18,12,35,43.50
2022,05,18,12,36,56.30
2022,05,18,12,37,54.70
2022,05,18,12,38,51.50
2022,05,18,12,39,48.30
2022,05,18,12,40,48.30
2022,05,18,12,41,40.20
2022,05,18,12,42,43.50
2022,05,18,12,43,40.20
2022,05,18,12,44,35.40
2022,05,18,12,45,37.00
2022,05,18,12,46,38.60
2022,05,18,12,47,32.20
2022,05,18,12,48,33.80
2022,05,18,12,49,37.00
2022,05,18,12,50,54.70
2022,05,18,12,51,54.70
2022,05,18,12,52,45.10
2022,05,18,12,53,43.50
2022,05,18,12,54,46.70
2022,05,18,12,55,48.30
2022,05,18,12,56,48.30
2022,05,18,12,57,38.60
2022,05,18,12,58,51.50
2022,05,18,12,59,37.00
2022,05,18,13,00,62.70
2022,05,18,13,01,56.30
2022,05,18,13,02,43.50
2022,05,18,13,03,48.30
2022,05,18,13,04,48.30
2022,05,18,13,05,57.90
2022,05,18,13,06,48.30
2022,05,18,13,07,41.80
2022,05,18,13,08,53.10
2022,05,18,13,09,57.90
2022,05,18,13,10,61.20
2022,05,18,13,11,48.30
2022,05,18,13,12,37.00
2022,05,18,13,13,48.30
2022,05,18,13,14,49.90
2022,05,18,13,15,40.20
2022,05,18,13,16,32.20
2022,05,18,13,17,46.70
2022,05,18,13,18,37.00
2022,05,18,13,19,37.00
2022,05,18,13,20,22.50
2022,05,18,13,21,33.80
2022,05,18,13,22,40.20
2022,05,18,13,23,41.80
2022,05,18,13,24,54.70
2022,05,18,13,25,49.90
2022,05,18,13,26,57.90
2022,05,18,13,27,41.80
2022,05,18,13,28,32.20
2022,05,18,13,29,37.00
2022,05,18,13,30,48.30
2022,05,18,13,31,54.70
2022,05,18,13,32,35.40
2022,05,18,13,33,45.10
2022,05,18,13,34,48.30
2022,05,18,13,35,57.90
2022,05,18,13,36,40.20
2022,05,18,13,37,61.20
2022,05,18,13,38,54.70
2022,05,18,13,39,59.50
2022,05,18,13,40,41.80
2022,05,18,13,41,49.90
2022,05,18,13,42,32.20
2022,05,18,13,43,46.70
2022,05,18,13,44,30.60
2022,05,18,13,45,46.70
2022,05,18,13,46,40.20
2022,05,18,13,47,27.40
2022,05,18,13,48,29.00
2022,05,18,13,49,51.50
2022,05,18,13,50,54.70
2022,05,18,13,51,48.30
2022,05,18,13,52,49.90
2022,05,18,13,53,49.90
2022,05,18,13,54,45.10
2022,05,18,13,55,54.70
2022,05,18,13,56,41.80
2022,05,18,13,57,32.20
2022,05,18,13,58,56.30
2022,05,18,13,59,51.50
2022,05,18,14,00,45.10
2022,05,18,14,01,38.60
2022,05,18,14,02,43.50
2022,05,18,14,03,43.50
2022,05,18,14,04,48.30
2022,05,18,14,05,53.10
2022,05,18,14,06,43.50
2022,05,18,14,07,49.90
2022,05,18,14,08,53.10
2022,05,18,14,09,45.10
2022,05,18,14,10,38.60
2022,05,18,14,11,38.60
2022,05,18,14,12,38.60
2022,05,18,14,13,48.30
2022,05,18,14,14,41.80
2022,05,18,14,15,45.10
2022,05,18,14,16,37.00
2022,05,18,14,17,49.90
2022,05,18,14,18,61.20
2022,05,18,14,19,77.30
2022,05,18,14,20,62.70
2022,05,18,14,21,51.50
2022,05,18,14,22,56.30
2022,05,18,14,23,56.30
2022,05,18,14,24,51.50
2022,05,18,14,25,51.50
2022,05,18,14,26,56.30
2022,05,18,14,27,48.30
2022,05,18,14,28,32.20
2022,05,18,14,29,57.90
2022,05,18,14,30,40.20
2022,05,18,14,31,62.70
2022,05,18,14,32,48.30
2022,05,18,14,33,64.40
2022,05,18,14,34,38.60
2022,05,18,14,35,38.60
2022,05,18,14,36,45.10
2022,05,18,14,37,56.30
2022,05,18,14,38,56.30
2022,05,18,14,39,51.50
2022,05,18,14,40,59.50
2022,05,18,14,41,51.50
2022,05,18,14,42,48.30
2022,05,18,14,43,67.60
2022,05,18,14,44,46.70
2022,05,18,14,45,35.40
2022,05,18,14,46,30.60
2022,05,18,14,47,54.70
2022,05,18,14,48,67.60
2022,05,18,14,49,35.40
2022,05,18,14,50,30.60
2022,05,18,14,51,45.10
2022,05,18,14,52,45.10
2022,05,18,14,53,32.20
2022,05,18,14,54,43.50
2022,05,18,14,55,49.90
2022,05,18,14,56,54.70
2022,05,18,14,57,53.10
2022,05,18,14,58,56.30
2022,05,18,14,59,45.10
2022,05,18,15,00,45.10
2022,05,18,15,01,40.20
2022,05,18,15,02,53.10
2022,05,18,15,03,56.30
2022,05,18,15,04,40.20
2022,05,18,15,05,62.70
2022,05,18,15,06,56.30
2022,05,18,15,07,48.30
2022,05,18,15,08,41.80
2022,05,18,15,09,62.70
2022,05,18,15,10,48.30
2022,05,18,15,11,56.30
2022,05,18,15,12,64.40
2022,05,18,15,13,59.50
2022,05,18,15,14,48.30
2022,05,18,15,15,59.50
2022,05,18,15,16,56.30
2022,05,18,15,17,53.10
2022,05,18,15,18,62.70
2022,05,18,15,19,41.80
2022,05,18,15,20,62.70
2022,05,18,15,21,40.20
2022,05,18,15,22,40.20
2022,05,18,15,23,43.50
2022,05,18,15,24,67.60
2022,05,18,15,25,51.50
2022,05,18,15,26,41.80
2022,05,18,15,27,43.50
2022,05,18,15,28,54.70
2022,05,18,15,29,54.70
2022,05,18,15,30,49.90
2022,05,18,15,31,67.60
2022,05,18,15,32,51.50
2022,05,18,15,33,29.00
2022,05,18,15,34,38.60
2022,05,18,15,35,62.70
2022,05,18,15,36,46.70
2022,05,18,15,37,59.50
2022,05,18,15,38,67.60
2022,05,18,15,39,64.40
2022,05,18,15,40,51.50
2022,05,18,15,41,54.70
2022,05,18,15,42,49.90
2022,05,18,15,43,59.50
2022,05,18,15,44,62.70
2022,05,18,15,45,51.50
2022,05,18,15,46,51.50
2022,05,18,15,47,59.50
2022,05,18,15,48,48.30
2022,05,18,15,49,46.70
2022,05,18,15,50,51.50
2022,05,18,15,51,51.50
2022,05,18,15,52,45.10
2022,05,18,15,53,46.70
2022,05,18,15,54,45.10
2022,05,18,15,55,56.30
2022,05,18,15,56,53.10
2022,05,18,15,57,64.40
2022,05,18,15,58,51.50
2022,05,18,15,59,54.70
2022,05,18,16,00,57.90
2022,05,18,16,01,54.70
2022,05,18,16,02,59.50
2022,05,18,16,03,61.20
2022,05,18,16,04,59.50
2022,05,18,16,05,57.90
2022,05,18,16,06,41.80
2022,05,18,16,07,57.90
2022,05,18,16,08,64.40
2022,05,18,16,09,53.10
2022,05,18,16,10,53.10
2022,05,18,16,11,67.60
2022,05,18,16,12,41.80
2022,05,18,16,13,51.50
2022,05,18,16,14,41.80
2022,05,18,16,15,37.00
2022,05,18,16,16,37.00
2022,05,18,16,17,43.50
2022,05,18,16,18,40.20
2022,05,18,16,19,57.90
2022,05,18,16,20,54.70
2022,05,18,16,21,57.90
2022,05,18,16,22,49.90
2022,05,18,16,23,48.30
2022,05,18,16,24,64.40
2022,05,18,16,25,67.60
2022,05,18,16,26,57.90
2022,05,18,16,27,38.60
2022,05,18,16,28,64.40
2022,05,18,16,29,56.30
2022,05,18,16,30,64.40
2022,05,18,16,31,59.50
2022,05,18,16,32,69.20
2022,05,18,16,33,40.20
2022,05,18,16,34,59.50
2022,05,18,16,35,70.80
2022,05,18,16,36,61.20
2022,05,18,16,37,45.10
2022,05,18,16,38,57.90
2022,05,18,16,39,61.20
2022,05,18,16,40,54.70
2022,05,18,16,41,53.10
2022,05,18,16,42,59.50
2022,05,18,16,43,56.30
2022,05,18,16,44,64.40
2022,05,18,16,45,61.20
2022,05,18,16,46,69.20
2022,05,18,16,47,53.10
2022,05,18,16,48,59.50
2022,05,18,16,49,37.00
2022,05,18,16,50,49.90
2022,05,18,16,51,53.10
2022,05,18,16,52,45.10
2022,05,18,16,53,64.40
2022,05,18,16,54,41.80
2022,05,18,16,55,59.50
2022,05,18,16,56,40.20
2022,05,18,16,57,62.70
2022,05,18,16,58,51.50
2022,05,18,16,59,43.50
2022,05,18,17,00,35.40
2022,05,18,17,01,43.50
2022,05,18,17,02,62.70
2022,05,18,17,03,80.50
2022,05,18,17,04,46.70
2022,05,18,17,05,43.50
2022,05,18,17,06,30.60
2022,05,18,17,07,57.90
2022,05,18,17,08,53.10
2022,05,18,17,09,46.70
2022,05,18,17,10,64.40
2022,05,18,17,11,54.70
2022,05,18,17,12,48.30
2022,05,18,17,13,37.00
2022,05,18,17,14,37.00
2022,05,18,17,15,62.70
2022,05,18,17,16,51.50
2022,05,18,17,17,46.70
2022,05,18,17,18,62.70
2022,05,18,17,19,62.70
2022,05,18,17,20,59.50
2022,05,18,17,21,54.70
2022,05,18,17,22,69.20
2022,05,18,17,23,64.40
2022,05,18,17,24,59.50
2022,05,18,17,25,57.90
2022,05,18,17,26,56.30
2022,05,18,17,27,53.10
2022,05,18,17,28,35.40
2022,05,18,17,29,57.90
2022,05,18,17,30,67.60
2022,05,18,17,31,57.90
2022,05,18,17,32,61.20
2022,05,18,17,33,59.50
2022,05,18,17,34,61.20
2022,05,18,17,35,40.20
2022,05,18,17,36,37.00
2022,05,18,17,37,54.70
2022,05,18,17,38,46.70
2022,05,18,17,39,40.20
2022,05,18,17,40,46.70
2022,05,18,17,41,38.60
2022,05,18,17,42,59.50
2022,05,18,17,43,56.30
2022,05,18,17,44,53.10
2022,05,18,17,45,48.30
2022,05,18,17,46,64.40
2022,05,18,17,47,72.40
2022,05,18,17,48,61.20
2022,05,18,17,49,66.00
2022,05,18,17,50,57.90
2022,05,18,17,51,57.90
2022,05,18,17,52,62.70
2022,05,18,17,53,67.60
2022,05,18,17,54,54.70
2022,05,18,17,55,57.90
2022,05,18,17,56,56.30
2022,05,18,17,57,51.50
2022,05,18,17,58,53.10
2022,05,18,17,59,48.30
2022,05,18,18,00,51.50
2022,05,18,18,01,49.90
2022,05,18,18,02,56.30
2022,05,18,18,03,64.40
2022,05,18,18,04,49.90
2022,05,18,18,05,49.90
2022,05,18,18,06,54.70
2022,05,18,18,07,45.10
2022,05,18,18,08,49.90
2022,05,18,18,09,56.30
2022,05,18,18,10,62.70
2022,05,18,18,11,46.70
2022,05,18,18,12,64.40
2022,05,18,18,13,53.10
2022,05,18,18,14,59.50
2022,05,18,18,15,62.70
2022,05,18,18,16,61.20
2022,05,18,18,17,69.20
2022,05,18,18,18,53.10
2022,05,18,18,19,53.10
2022,05,18,18,20,46.70
2022,05,18,18,21,48.30
2022,05,18,18,22,40.20
2022,05,18,18,23,56.30
2022,05,18,18,24,67.60
2022,05,18,18,25,51.50
2022,05,18,18,26,51.50
2022,05,18,18,27,45.10
2022,05,18,18,28,53.10
2022,05,18,18,29,45.10
2022,05,18,18,30,61.20
2022,05,18,18,31,62.70
2022,05,18,18,32,61.20
2022,05,18,18,33,70.80
2022,05,18,18,34,70.80
2022,05,18,18,35,25.70
2022,05,18,18,36,25.70
2022,05,18,18,37,25.70
2022,05,18,18,38,56.30
2022,05,18,18,39,49.90
2022,05,18,18,40,56.30
2022,05,18,18,41,45.10
2022,05,18,18,42,57.90
2022,05,18,18,43,59.50
2022,05,18,18,44,41.80
2022,05,18,18,45,43.50
2022,05,18,18,46,45.10
2022,05,18,18,47,70.80
2022,05,18,18,48,53.10
2022,05,18,18,49,51.50
2022,05,18,18,50,54.70
2022,05,18,18,51,61.20
2022,05,18,18,52,66.00
2022,05,18,18,53,61.20
2022,05,18,18,54,48.30
2022,05,18,18,55,61.20
2022,05,18,18,56,56.30
2022,05,18,18,57,57.90
2022,05,18,18,58,40.20
2022,05,18,18,59,61.20
2022,05,18,19,00,40.20
2022,05,18,19,01,43.50
2022,05,18,19,02,32.20
2022,05,18,19,03,38.60
2022,05,18,19,04,51.50
2022,05,18,19,05,56.30
2022,05,18,19,06,51.50
2022,05,18,19,07,56.30
2022,05,18,19,08,33.80
2022,05,18,19,09,45.10
2022,05,18,19,10,41.80
2022,05,18,19,11,37.00
2022,05,18,19,12,29.00
2022,05,18,19,13,33.80
2022,05,18,19,14,37.00
2022,05,18,19,15,75.60
2022,05,18,19,16,43.50
2022,05,18,19,17,41.80
2022,05,18,19,18,53.10
2022,05,18,19,19,59.50
2022,05,18,19,20,48.30
2022,05,18,19,21,53.10
2022,05,18,19,22,46.70
2022,05,18,19,23,45.10
2022,05,18,19,24,64.40
2022,05,18,19,25,49.90
2022,05,18,19,26,53.10
2022,05,18,19,27,51.50
2022,05,18,19,28,49.90
2022,05,18,19,29,48.30
2022,05,18,19,30,45.10
2022,05,18,19,31,46.70
2022,05,18,19,32,45.10
2022,05,18,19,33,51.50
2022,05,18,19,34,40.20
2022,05,18,19,35,41.80
2022,05,18,19,36,41.80
2022,05,18,19,37,41.80
2022,05,18,19,38,41.80
2022,05,18,19,39,38.60
2022,05,18,19,40,33.80
2022,05,18,19,41,33.80
2022,05,18,19,42,43.50
2022,05,18,19,43,49.90
2022,05,18,19,44,37.00
2022,05,18,19,45,45.10
2022,05,18,19,46,29.00
2022,05,18,19,47,37.00
2022,05,18,19,48,41.80
2022,05,18,19,49,30.60
2022,05,18,19,50,27.40
2022,05,18,19,51,32.20
2022,05,18,19,52,25.70
2022,05,18,19,53,37.00
2022,05,18,19,54,25.70
2022,05,18,19,55,41.80
2022,05,18,19,56,37.00
2022,05,18,19,57,40.20
2022,05,18,19,58,20.90
2022,05,18,19,59,45.10
2022,05,18,20,00,22.50
2022,05,18,20,01,37.00
2022,05,18,20,02,37.00
2022,05,18,20,03,22.50
2022,05,18,20,04,30.60
2022,05,18,20,05,25.70
2022,05,18,20,06,35.40
2022,05,18,20,07,32.20
2022,05,18,20,08,37.00
2022,05,18,20,09,37.00
2022,05,18,20,10,22.50
2022,05,18,20,11,37.00
2022,05,18,20,12,46.70
2022,05,18,20,13,37.00
2022,05,18,20,14,30.60
2022,05,18,20,15,35.40
2022,05,18,20,16,32.20
2022,05,18,20,17,27.40
2022,05,18,20,18,32.20
2022,05,18,20,19,32.20
2022,05,18,20,20,27.40
2022,05,18,20,21,41.80
2022,05,18,20,22,30.60
2022,05,18,20,23,37.00
2022,05,18,20,24,43.50
2022,05,18,20,25,49.90
2022,05,18,20,26,32.20
2022,05,18,20,27,30.60
2022,05,18,20,28,30.60
2022,05,18,20,29,22.50
2022,05,18,20,30,24.20
2022,05,18,20,31,27.40
2022,05,18,20,32,24.20
2022,05,18,20,33,40.20
2022,05,18,20,34,41.80
2022,05,18,20,35,22.50
2022,05,18,20,36,41.80
2022,05,18,20,37,35.40
2022,05,18,20,38,59.50
2022,05,18,20,39,35.40
2022,05,18,20,40,49.90
2022,05,18,20,41,38.60
2022,05,18,20,42,38.60
2022,05,18,20,43,30.60
2022,05,18,20,44,30.60
2022,05,18,20,45,33.80
2022,05,18,20,46,61.20
2022,05,18,20,47,30.60
2022,05,18,20,48,40.20
2022,05,18,20,49,49.90
2022,05,18,20,50,43.50
2022,05,18,20,51,40.20
2022,05,18,20,52,38.60
2022,05,18,20,53,43.50
2022,05,18,20,54,38.60
2022,05,18,20,55,41.80
2022,05,18,20,56,45.10
2022,05,18,20,57,43.50
2022,05,18,20,58,29.00
2022,05,18,20,59,35.40
2022,05,18,21,00,27.40
2022,05,18,21,01,46.70
2022,05,18,21,02,53.10
2022,05,18,21,03,49.90
2022,05,18,21,04,27.40
2022,05,18,21,05,32.20
2022,05,18,21,06,51.50
2022,05,18,21,07,49.90
2022,05,18,21,08,62.70
2022,05,18,21,09,38.60
2022,05,18,21,10,53.10
2022,05,18,21,11,48.30
2022,05,18,21,12,51.50
2022,05,18,21,13,32.20
2022,05,18,21,14,56.30
2022,05,18,21,15,37.00
2022,05,18,21,16,45.10
2022,05,18,21,17,35.40
2022,05,18,21,18,33.80
2022,05,18,21,19,51.50
2022,05,18,21,20,32.20
2022,05,18,21,21,43.50
2022,05,18,21,22,43.50
2022,05,18,21,23,29.00
2022,05,18,21,24,53.10
2022,05,18,21,25,32.20
2022,05,18,21,26,33.80
2022,05,18,21,27,32.20
2022,05,18,21,28,41.80
2022,05,18,21,29,41.80
2022,05,18,21,30,33.80
2022,05,18,21,31,37.00
2022,05,18,21,32,27.40
2022,05,18,21,33,27.40
2022,05,18,21,34,22.50
2022,05,18,21,35,9.60
2022,05,18,21,36,27.40